Akron Canton, OH

8:44 PM EDT on August 18, 2017 (GMT -0400)
Akron-Canton Regional

Weather History for KCAK - August, 1959

Change the Weather History Date:

Saturday, August 1, 1959

  Actual Average Record
Temperature  
Mean Temperature 70 °F 72 °F  
Max Temperature 82 °F 82 °F 96 °F (1933)
Min Temperature 57 °F 62 °F 48 °F (1992)
Degree Days  
Heating Degree Days 0 0  
Month to date heating degree days 0  
Since 1 June heating degree days 55  
Since 1 July heating degree days 6  
Cooling Degree Days 6 7  
Month to date cooling degree days 7  
Year to date cooling degree days 406  
Since 1 June cooling degree days 364  
Growing Degree Days 20 (Base 50)    
Moisture  
Dew Point 58 °F    
Average Humidity 67    
Maximum Humidity 84    
Minimum Humidity 53    
Precipitation  
Precipitation 0.00 in 0.12 in 0.59 in (1979)
Month to date precipitation 0.12  
Year to date precipitation 23.76  
Snow  
Snow 0.00 in 0.00 in - ()
Month to date snowfall 0.0  
Since 1 June snowfall 0.0  
Since 1 July snowfall 0.0  
Snow Depth -    
Sea Level Pressure  
Sea Level Pressure 30.08 in    
Wind  
Wind Speed 11 mph (NNW)    
Max Wind Speed 18 mph    
Max Gust Speed -    
Visibility 13 miles    
Events      
T = Trace of Precipitation, MM = Missing Value Source: NWS Daily Summary

Daily Weather History Graph

Daily Weather History Graph

Search for Another Location

Airport or City:

Trip Planner

Search our weather history database for the weather conditions in past years. The results will help you decide how hot, cold, wet, or windy it might be!

Date:

Astronomy

Aug. 01, 1959 Rise Set
Actual Time 6:21 AM EDT 8:42 PM EDT
Civil Twilight 5:50 AM EDT 9:13 PM EDT
Nautical Twilight 5:11 AM EDT 9:51 PM EDT
Astronomical Twilight 4:29 AM EDT 10:33 PM EDT
Moon 3:42 AM EDT (8/1) 6:23 PM EDT (8/1)
Length of Visible Light 15h 22m
Length of Day
14h 21m
Waning Crescent, 9% of the Moon is Illuminated
Aug 1
Waning Crescent
Aug 4
New
Aug 11
First Quarter
Aug 18
Full
Aug 26
Last Quarter

Hourly Weather History & Observations

Time (EDT) Temp. Heat Index Dew Point Humidity Pressure Visibility Wind Dir Wind Speed Gust Speed Precip Events Conditions
12:00 AM 64.9 °F - 57.9 °F 78% 30.05 in 15.0 mi NNW 5.8 mph - N/A   Drizzle
1:00 AM 64.0 °F - 57.9 °F 80% 30.06 in 15.0 mi NNW 6.9 mph - N/A   Drizzle
2:00 AM 64.0 °F - 57.9 °F 80% 30.05 in 15.0 mi NNW 9.2 mph - N/A   Drizzle
3:00 AM 64.9 °F - 57.9 °F 78% 30.05 in 15.0 mi NNW 10.4 mph - N/A   Drizzle
4:00 AM 64.0 °F - 57.9 °F 80% 30.05 in 15.0 mi NNW 10.4 mph - N/A   Drizzle
5:00 AM 63.0 °F - 57.0 °F 81% 30.05 in 15.0 mi NNW 10.4 mph - N/A   Drizzle
6:00 AM 63.0 °F - 57.0 °F 81% 30.05 in 10.0 mi NNW 9.2 mph - N/A   Drizzle
7:00 AM 62.1 °F - 57.0 °F 84% 30.06 in 7.0 mi NW 8.1 mph - N/A   Drizzle
8:00 AM 66.9 °F - 59.0 °F 76% 30.07 in 7.0 mi WNW 8.1 mph - N/A   Drizzle
9:00 AM 73.0 °F - 59.0 °F 61% 30.07 in 7.0 mi NW 11.5 mph - N/A   Drizzle
10:00 AM 75.9 °F - 63.0 °F 64% 30.07 in 8.0 mi NW 12.7 mph - N/A   Drizzle
11:00 AM 78.1 °F - 63.0 °F 60% 30.08 in 10.0 mi NNW 15.0 mph - N/A   Drizzle
12:00 PM 79.0 °F - 64.0 °F 60% 30.08 in 15.0 mi NNW 15.0 mph - N/A   Drizzle
1:00 PM 81.0 °F 82.5 °F 64.0 °F 56% 30.08 in 15.0 mi NNW 16.1 mph - N/A   Drizzle
2:00 PM 82.0 °F 83.8 °F 64.9 °F 56% 30.08 in 10.0 mi NNW 17.3 mph - N/A   Drizzle
3:00 PM 82.0 °F 84.1 °F 66.0 °F 58% 30.08 in 15.0 mi NNW 18.4 mph - N/A   Drizzle
4:00 PM 78.1 °F - 63.0 °F 60% 30.09 in 15.0 mi North 17.3 mph - N/A   Drizzle
5:00 PM 77.0 °F - 62.1 °F 60% 30.09 in 15.0 mi NNW 18.4 mph - N/A   Drizzle
6:00 PM 73.9 °F - 59.0 °F 59% 30.10 in 15.0 mi North 17.3 mph - N/A   Drizzle
7:00 PM 72.0 °F - 54.0 °F 53% 30.11 in 15.0 mi North 17.3 mph - N/A   Drizzle
8:00 PM 68.0 °F - 51.1 °F 55% 30.11 in 15.0 mi North 12.7 mph - N/A   Drizzle
9:00 PM 63.0 °F - 48.0 °F 58% 30.12 in 15.0 mi North 11.5 mph - N/A   Drizzle
10:00 PM 59.0 °F - 48.0 °F 67% 30.14 in 15.0 mi North 12.7 mph - N/A   Drizzle
11:00 PM 57.0 °F - 46.9 °F 69% 30.16 in 15.0 mi North 10.4 mph - N/A   Drizzle